TimeEDT,TemperatureF,Dew PointF,Humidity,Sea Level PressureIn,VisibilityMPH,Wind Direction,Wind SpeedMPH,Gust SpeedMPH,PrecipitationIn,Events,Conditions,WindDirDegrees,DateUTC
12:15 AM,68.0,68.0,100,30.05,10.0,Calm,Calm,-,N/A,,Clear,0,2013-09-09 04:15:00
12:35 AM,68.0,68.0,100,30.05,10.0,Calm,Calm,-,N/A,,Clear,0,2013-09-09 04:35:00
12:55 AM,68.0,68.0,100,30.05,10.0,Calm,Calm,-,N/A,,Clear,0,2013-09-09 04:55:00
1:15 AM,68.0,68.0,100,30.05,10.0,Calm,Calm,-,N/A,,Scattered Clouds,0,2013-09-09 05:15:00
1:35 AM,68.0,68.0,100,30.06,10.0,Calm,Calm,-,N/A,,Mostly Cloudy,0,2013-09-09 05:35:00
1:55 AM,68.0,68.0,100,30.06,10.0,Calm,Calm,-,N/A,,Mostly Cloudy,0,2013-09-09 05:55:00
2:15 AM,68.0,68.0,100,30.06,10.0,Calm,Calm,-,N/A,,Scattered Clouds,0,2013-09-09 06:15:00
2:35 AM,68.0,66.2,94,30.06,7.0,Calm,Calm,-,N/A,,Mostly Cloudy,0,2013-09-09 06:35:00
2:55 AM,68.0,68.0,100,30.06,7.0,Calm,Calm,-,N/A,,Scattered Clouds,0,2013-09-09 06:55:00
3:15 AM,68.0,66.2,94,30.05,5.0,Calm,Calm,-,N/A,,Clear,0,2013-09-09 07:15:00
3:35 AM,68.0,66.2,94,30.05,7.0,Calm,Calm,-,N/A,,Clear,0,2013-09-09 07:35:00
3:55 AM,68.0,66.2,94,30.06,7.0,Calm,Calm,-,N/A,,Clear,0,2013-09-09 07:55:00
4:15 AM,66.2,66.2,100,30.06,5.0,Calm,Calm,-,N/A,,Clear,0,2013-09-09 08:15:00
4:35 AM,66.2,66.2,100,30.06,7.0,Calm,Calm,-,N/A,,Clear,0,2013-09-09 08:35:00
4:55 AM,68.0,68.0,100,30.06,5.0,Calm,Calm,-,N/A,,Clear,0,2013-09-09 08:55:00
5:15 AM,68.0,68.0,100,30.07,7.0,Calm,Calm,-,N/A,,Clear,0,2013-09-09 09:15:00
5:35 AM,68.0,68.0,100,30.07,7.0,Calm,Calm,-,N/A,,Clear,0,2013-09-09 09:35:00
5:55 AM,68.0,66.2,94,30.07,5.0,Calm,Calm,-,N/A,,Clear,0,2013-09-09 09:55:00
6:15 AM,68.0,68.0,100,30.06,7.0,Calm,Calm,-,N/A,,Clear,0,2013-09-09 10:15:00
6:35 AM,68.0,68.0,100,30.07,10.0,Calm,Calm,-,N/A,,Clear,0,2013-09-09 10:35:00
6:55 AM,68.0,68.0,100,30.07,10.0,Calm,Calm,-,N/A,,Clear,0,2013-09-09 10:55:00
7:15 AM,68.0,68.0,100,30.08,10.0,Calm,Calm,-,N/A,,Clear,0,2013-09-09 11:15:00
7:35 AM,68.0,68.0,100,30.08,10.0,Calm,Calm,-,N/A,,Clear,0,2013-09-09 11:35:00
7:55 AM,68.0,68.0,100,30.09,10.0,Calm,Calm,-,N/A,,Clear,0,2013-09-09 11:55:00
8:15 AM,69.8,68.0,94,30.09,10.0,Calm,Calm,-,N/A,,Clear,0,2013-09-09 12:15:00
8:35 AM,69.8,68.0,94,30.09,10.0,Calm,Calm,-,N/A,,Clear,0,2013-09-09 12:35:00
8:55 AM,71.6,69.8,94,30.09,10.0,Calm,Calm,-,N/A,,Clear,0,2013-09-09 12:55:00
9:15 AM,71.6,69.8,94,30.10,10.0,Calm,Calm,-,N/A,,Clear,0,2013-09-09 13:15:00
9:35 AM,71.6,69.8,94,30.10,10.0,Calm,Calm,-,N/A,,Clear,0,2013-09-09 13:35:00
9:55 AM,73.4,69.8,88,30.10,10.0,South,3.5,-,N/A,,Clear,170,2013-09-09 13:55:00
10:15 AM,75.2,69.8,83,30.10,10.0,South,4.6,-,N/A,,Clear,180,2013-09-09 14:15:00
10:35 AM,77.0,69.8,78,30.11,10.0,South,5.8,-,N/A,,Clear,180,2013-09-09 14:35:00
10:55 AM,78.8,69.8,74,30.11,10.0,South,6.9,-,N/A,,Clear,180,2013-09-09 14:55:00
11:15 AM,78.8,68.0,69,30.11,10.0,South,3.5,-,N/A,,Clear,190,2013-09-09 15:15:00
11:35 AM,80.6,68.0,65,30.11,10.0,SSE,5.8,-,N/A,,Clear,160,2013-09-09 15:35:00
11:55 AM,80.6,68.0,65,30.11,10.0,SSE,6.9,-,N/A,,Clear,160,2013-09-09 15:55:00
12:15 PM,82.4,68.0,62,30.11,10.0,WSW,3.5,-,N/A,,Clear,250,2013-09-09 16:15:00
12:35 PM,82.4,68.0,62,30.10,10.0,WSW,3.5,-,N/A,,Clear,250,2013-09-09 16:35:00
12:55 PM,84.2,68.0,58,30.10,10.0,South,4.6,-,N/A,,Clear,190,2013-09-09 16:55:00
1:15 PM,84.2,68.0,58,30.10,10.0,South,5.8,-,N/A,,Clear,170,2013-09-09 17:15:00
1:35 PM,86.0,64.4,48,30.10,10.0,WSW,8.1,-,N/A,,Clear,240,2013-09-09 17:35:00
1:55 PM,86.0,66.2,51,30.10,10.0,SW,4.6,-,N/A,,Clear,230,2013-09-09 17:55:00
2:15 PM,86.0,64.4,48,30.09,10.0,SSW,4.6,-,N/A,,Scattered Clouds,210,2013-09-09 18:15:00
2:35 PM,86.0,68.0,55,30.09,10.0,West,3.5,-,N/A,,Scattered Clouds,260,2013-09-09 18:35:00
2:55 PM,86.0,66.2,51,30.08,10.0,Calm,Calm,-,N/A,,Scattered Clouds,0,2013-09-09 18:55:00
3:15 PM,86.0,66.2,51,30.07,10.0,SW,3.5,-,N/A,,Scattered Clouds,230,2013-09-09 19:15:00
3:35 PM,86.0,66.2,51,30.07,10.0,SW,3.5,-,N/A,,Mostly Cloudy,220,2013-09-09 19:35:00
3:55 PM,87.8,66.2,49,30.06,10.0,WSW,3.5,-,N/A,,Overcast,240,2013-09-09 19:55:00
4:15 PM,87.8,66.2,49,30.06,10.0,SW,8.1,-,N/A,,Mostly Cloudy,230,2013-09-09 20:15:00
4:35 PM,86.0,66.2,51,30.06,10.0,Calm,Calm,-,N/A,,Mostly Cloudy,0,2013-09-09 20:35:00
4:55 PM,87.8,68.0,52,30.05,10.0,SW,8.1,-,N/A,,Mostly Cloudy,230,2013-09-09 20:55:00
5:15 PM,87.8,66.2,49,30.05,10.0,WNW,4.6,-,N/A,,Scattered Clouds,290,2013-09-09 21:15:00
5:35 PM,86.0,66.2,51,30.05,10.0,West,5.8,-,N/A,,Scattered Clouds,280,2013-09-09 21:35:00
5:55 PM,86.0,66.2,51,30.06,10.0,SW,4.6,-,N/A,,Mostly Cloudy,230,2013-09-09 21:55:00
6:15 PM,86.0,68.0,55,30.06,10.0,NNE,3.5,-,N/A,,Scattered Clouds,20,2013-09-09 22:15:00
6:35 PM,86.0,69.8,58,30.06,10.0,Calm,Calm,-,N/A,,Mostly Cloudy,0,2013-09-09 22:35:00
6:55 PM,82.4,69.8,66,30.05,10.0,Calm,Calm,-,N/A,,Mostly Cloudy,0,2013-09-09 22:55:00
7:15 PM,82.4,69.8,66,30.06,10.0,SE,4.6,-,N/A,,Overcast,140,2013-09-09 23:15:00
7:35 PM,82.4,68.0,62,30.07,10.0,South,4.6,-,N/A,,Mostly Cloudy,180,2013-09-09 23:35:00
7:55 PM,80.6,66.2,61,30.07,10.0,Calm,Calm,-,N/A,,Mostly Cloudy,0,2013-09-09 23:55:00
8:15 PM,78.8,68.0,69,30.08,10.0,South,3.5,-,N/A,,Scattered Clouds,190,2013-09-10 00:15:00
8:35 PM,78.8,66.2,65,30.08,10.0,Calm,Calm,-,N/A,,Clear,0,2013-09-10 00:35:00
8:55 PM,77.0,68.0,74,30.08,10.0,SSE,3.5,-,N/A,,Clear,150,2013-09-10 00:55:00
9:15 PM,77.0,68.0,74,30.09,10.0,Calm,Calm,-,N/A,,Clear,0,2013-09-10 01:15:00
9:35 PM,77.0,68.0,74,30.10,10.0,SSE,3.5,-,N/A,,Clear,160,2013-09-10 01:35:00
9:55 PM,75.2,68.0,78,30.10,10.0,Calm,Calm,-,N/A,,Clear,0,2013-09-10 01:55:00
10:15 PM,75.2,68.0,78,30.11,10.0,Calm,Calm,-,N/A,,Clear,0,2013-09-10 02:15:00
10:35 PM,75.2,68.0,78,30.11,10.0,South,3.5,-,N/A,,Clear,180,2013-09-10 02:35:00
10:55 PM,73.4,68.0,83,30.11,10.0,Calm,Calm,-,N/A,,Clear,0,2013-09-10 02:55:00
11:15 PM,73.4,68.0,83,30.12,10.0,Calm,Calm,-,N/A,,Clear,0,2013-09-10 03:15:00
11:35 PM,73.4,69.8,88,30.12,10.0,Calm,Calm,-,N/A,,Clear,0,2013-09-10 03:35:00
11:55 PM,73.4,69.8,88,30.12,10.0,South,3.5,-,N/A,,Clear,170,2013-09-10 03:55:00